CMP162 MPTO-MROC

Flight info

Callsign CMP162
Flight time N/A
Altitude 30000
Route SIMAN3B SIMAN DCT PUDOS DCT ISEBA CUARE3I
Aircraft B738/M-SDE2E3FGHIRWXY/LB1

Departure

Time 2026-05-07 03:58
Airport Tocumen International Airport (MPTO)

Arrival

Time N/A
Airport Juan Santamaría International Airport (MROC)
Time Latitude Longitude Altitude Speed Heading
2026-05-07 03:53 9.07012 -79.38694 30 ft 0 kts 27°
2026-05-07 03:54 9.07015 -79.38694 30 ft 2 kts 21°
2026-05-07 03:54 9.07055 -79.38673 30 ft 11 kts 28°
2026-05-07 03:54 9.07136 -79.38631 32 ft 13 kts 27°
2026-05-07 03:55 9.07214 -79.38598 33 ft 9 kts 358°
2026-05-07 03:55 9.07227 -79.38602 34 ft 4 kts 336°
2026-05-07 03:55 9.07247 -79.38618 35 ft 4 kts 314°
2026-05-07 03:55 9.07262 -79.38640 38 ft 4 kts 299°
2026-05-07 03:56 9.07264 -79.38644 39 ft 0 kts 296°
2026-05-07 03:56 9.07268 -79.38656 41 ft 4 kts 290°
2026-05-07 03:56 9.07282 -79.38688 25 ft 8 kts 295°
2026-05-07 03:57 9.07312 -79.38708 28 ft 2 kts 25°
2026-05-07 03:57 9.07336 -79.38697 27 ft 1 kts 28°
2026-05-07 03:57 9.07342 -79.38694 27 ft 1 kts 28°
2026-05-07 03:57 9.07442 -79.38636 29 ft 47 kts 30°
2026-05-07 03:58 9.07932 -79.38340 28 ft 117 kts 31°
2026-05-07 03:58 9.08796 -79.37808 105 ft 165 kts 31°
2026-05-07 03:58 9.09796 -79.37202 834 ft 168 kts 30°
2026-05-07 03:58 9.10818 -79.36598 1531 ft 170 kts 30°
2026-05-07 03:59 9.11871 -79.35970 2109 ft 186 kts 30°
2026-05-07 03:59 9.13078 -79.35248 2369 ft 214 kts 30°
2026-05-07 03:59 9.14425 -79.34441 2598 ft 233 kts 31°
2026-05-07 03:59 9.15844 -79.33588 3055 ft 240 kts 31°
2026-05-07 04:00 9.17292 -79.32718 3578 ft 243 kts 31°
2026-05-07 04:00 9.18750 -79.31842 4126 ft 245 kts 31°
2026-05-07 04:00 9.20219 -79.30959 4664 ft 247 kts 31°
2026-05-07 04:00 9.21834 -79.30377 5149 ft 251 kts
2026-05-07 04:01 9.23537 -79.30697 5704 ft 253 kts 335°
2026-05-07 04:01 9.24888 -79.31844 6207 ft 259 kts 305°
2026-05-07 04:01 9.25566 -79.33537 6662 ft 264 kts 282°
2026-05-07 04:01 9.25789 -79.35390 7106 ft 268 kts 275°
2026-05-07 04:02 9.25904 -79.37283 7533 ft 271 kts 274°
2026-05-07 04:02 9.26009 -79.39198 7986 ft 274 kts 274°
2026-05-07 04:02 9.26125 -79.41131 8404 ft 277 kts 274°
2026-05-07 04:02 9.26253 -79.43089 8821 ft 280 kts 274°
2026-05-07 04:03 9.26391 -79.45065 9277 ft 283 kts 274°
2026-05-07 04:03 9.26535 -79.47054 9754 ft 284 kts 274°
2026-05-07 04:03 9.26686 -79.49067 10111 ft 289 kts 275°
2026-05-07 04:03 9.26838 -79.51097 10516 ft 291 kts 274°
2026-05-07 04:04 9.26993 -79.53153 10899 ft 294 kts 274°
2026-05-07 04:04 9.27176 -79.55220 11309 ft 296 kts 279°
2026-05-07 04:04 9.27638 -79.57259 11703 ft 298 kts 286°
2026-05-07 04:04 9.28238 -79.59279 12115 ft 301 kts 288°
2026-05-07 04:05 9.28865 -79.61309 12530 ft 303 kts 288°
2026-05-07 04:05 9.29491 -79.63359 12930 ft 306 kts 287°
2026-05-07 04:05 9.30112 -79.65435 13343 ft 309 kts 287°
2026-05-07 04:05 9.30721 -79.67506 13742 ft 313 kts 287°
2026-05-07 04:06 9.31344 -79.69652 14001 ft 324 kts 287°
2026-05-07 04:06 9.31996 -79.71912 14092 ft 345 kts 287°
2026-05-07 04:06 9.32686 -79.74313 14270 ft 364 kts 286°
2026-05-07 04:06 9.33398 -79.76801 14786 ft 370 kts 287°
2026-05-07 04:07 9.34118 -79.79316 15429 ft 373 kts 287°
2026-05-07 04:07 9.34842 -79.81848 16073 ft 376 kts 287°
2026-05-07 04:07 9.35573 -79.84403 16692 ft 379 kts 287°
2026-05-07 04:07 9.35996 -79.87046 17268 ft 385 kts 269°
2026-05-07 04:08 9.35593 -79.89723 17888 ft 387 kts 257°
2026-05-07 04:08 9.34975 -79.92386 18454 ft 390 kts 256°
2026-05-07 04:08 9.34318 -79.95068 18929 ft 395 kts 255°
2026-05-07 04:08 9.33649 -79.97783 19431 ft 399 kts 256°
2026-05-07 04:09 9.32981 -80.00519 19933 ft 402 kts 256°
2026-05-07 04:09 9.32322 -80.03281 20441 ft 405 kts 257°
2026-05-07 04:09 9.31668 -80.06068 20921 ft 409 kts 257°
2026-05-07 04:09 9.31004 -80.08887 21397 ft 413 kts 256°
2026-05-07 04:10 9.30332 -80.11721 21883 ft 416 kts 256°
2026-05-07 04:10 9.29656 -80.14585 22361 ft 419 kts 256°
2026-05-07 04:10 9.28977 -80.17472 22819 ft 423 kts 257°
2026-05-07 04:10 9.28294 -80.20382 23261 ft 427 kts 257°
2026-05-07 04:11 9.27607 -80.23316 23678 ft 430 kts 257°
2026-05-07 04:11 9.26914 -80.26271 24084 ft 432 kts 257°
2026-05-07 04:11 9.26220 -80.29230 24518 ft 433 kts 257°
2026-05-07 04:11 9.25523 -80.32201 24922 ft 435 kts 257°
2026-05-07 04:12 9.24832 -80.35142 25305 ft 437 kts 257°
2026-05-07 04:12 9.24119 -80.38180 25701 ft 439 kts 257°
2026-05-07 04:12 9.23412 -80.41189 26098 ft 440 kts 257°
2026-05-07 04:12 9.22710 -80.44173 26482 ft 442 kts 257°
2026-05-07 04:13 9.21995 -80.47213 26859 ft 444 kts 257°
2026-05-07 04:13 9.21271 -80.50293 27306 ft 445 kts 257°
2026-05-07 04:13 9.20565 -80.53291 27820 ft 442 kts 257°
2026-05-07 04:13 9.19854 -80.56308 28373 ft 440 kts 257°
2026-05-07 04:14 9.19147 -80.59311 28896 ft 438 kts 257°
2026-05-07 04:14 9.18441 -80.62306 29395 ft 437 kts 257°
2026-05-07 04:14 9.17737 -80.65291 29896 ft 436 kts 257°
2026-05-07 04:15 9.16325 -80.71280 29971 ft 436 kts 257°
2026-05-07 04:15 9.14919 -80.77236 29987 ft 435 kts 257°
2026-05-07 04:16 9.13509 -80.83207 29984 ft 437 kts 257°
2026-05-07 04:16 9.12095 -80.89186 29990 ft 437 kts 257°
2026-05-07 04:17 9.10681 -80.95168 29987 ft 437 kts 257°
2026-05-07 04:17 9.09275 -81.01152 29985 ft 436 kts 260°
2026-05-07 04:18 9.09057 -81.07229 29992 ft 432 kts 278°
2026-05-07 04:18 9.10381 -81.13113 29985 ft 429 kts 287°
2026-05-07 04:19 9.11926 -81.18941 29985 ft 428 kts 287°
2026-05-07 04:19 9.13448 -81.24771 29983 ft 429 kts 286°
2026-05-07 04:20 9.14941 -81.30616 29986 ft 429 kts 286°
2026-05-07 04:20 9.16422 -81.36470 29982 ft 429 kts 286°
2026-05-07 04:21 9.18640 -81.45259 29989 ft 430 kts 286°
2026-05-07 04:21 9.20111 -81.51088 29987 ft 430 kts 286°
2026-05-07 04:22 9.21590 -81.56957 29986 ft 430 kts 286°
2026-05-07 04:22 9.23069 -81.62825 29985 ft 430 kts 286°
2026-05-07 04:23 9.24546 -81.68691 29982 ft 429 kts 286°
2026-05-07 04:23 9.26019 -81.74547 29992 ft 429 kts 286°
2026-05-07 04:24 9.27490 -81.80398 29990 ft 429 kts 286°
2026-05-07 04:24 9.28959 -81.86246 29986 ft 428 kts 286°
2026-05-07 04:25 9.30426 -81.92088 29991 ft 428 kts 286°
2026-05-07 04:25 9.31892 -81.97932 29986 ft 428 kts 286°
2026-05-07 04:26 9.33357 -82.03777 29987 ft 428 kts 286°
2026-05-07 04:26 9.34820 -82.09618 29990 ft 428 kts 286°
2026-05-07 04:27 9.36281 -82.15453 29988 ft 428 kts 286°
2026-05-07 04:27 9.37741 -82.21291 29992 ft 428 kts 286°
2026-05-07 04:28 9.39201 -82.27130 29989 ft 428 kts 286°
2026-05-07 04:28 9.40660 -82.32972 29996 ft 428 kts 286°
2026-05-07 04:29 9.42108 -82.38775 29992 ft 428 kts 286°
2026-05-07 04:29 9.43565 -82.44617 29994 ft 428 kts 286°
2026-05-07 04:30 9.45021 -82.50461 30002 ft 428 kts 286°
2026-05-07 04:30 9.46475 -82.56301 30007 ft 428 kts 285°
2026-05-07 04:31 9.47929 -82.62145 30008 ft 428 kts 285°
2026-05-07 04:31 9.49385 -82.67998 30008 ft 428 kts 285°
2026-05-07 04:32 9.50837 -82.73844 30003 ft 428 kts 285°
2026-05-07 04:32 9.52288 -82.79691 30006 ft 428 kts 285°
2026-05-07 04:33 9.53738 -82.85535 30019 ft 427 kts 285°
2026-05-07 04:33 9.55209 -82.91360 30018 ft 424 kts 286°
2026-05-07 04:34 9.56680 -82.97050 30020 ft 413 kts 286°
2026-05-07 04:34 9.58125 -83.02651 30000 ft 415 kts 286°
2026-05-07 04:35 9.58853 -83.05482 29671 ft 413 kts 286°
2026-05-07 04:35 9.59581 -83.08321 29286 ft 410 kts 286°
2026-05-07 04:35 9.60294 -83.11100 28934 ft 405 kts 286°
2026-05-07 04:35 9.61044 -83.13840 28504 ft 402 kts 289°
2026-05-07 04:36 9.61945 -83.16520 28073 ft 401 kts 291°
2026-05-07 04:36 9.62909 -83.19157 27694 ft 398 kts 292°
2026-05-07 04:36 9.63881 -83.21777 27295 ft 396 kts 292°
2026-05-07 04:36 9.64843 -83.24390 26921 ft 394 kts 292°
2026-05-07 04:37 9.65788 -83.26991 26539 ft 393 kts 292°
2026-05-07 04:37 9.66722 -83.29593 26151 ft 392 kts 291°
2026-05-07 04:37 9.67647 -83.32187 25783 ft 391 kts 291°
2026-05-07 04:37 9.68567 -83.34776 25382 ft 390 kts 291°
2026-05-07 04:38 9.69473 -83.37331 25017 ft 390 kts 291°
2026-05-07 04:38 9.70389 -83.39914 24624 ft 390 kts 291°
2026-05-07 04:38 9.71304 -83.42497 24241 ft 389 kts 291°
2026-05-07 04:38 9.72232 -83.45116 23861 ft 389 kts 291°
2026-05-07 04:39 9.72838 -83.46825 23583 ft 389 kts 291°
2026-05-07 04:39 9.73754 -83.49408 23155 ft 388 kts 291°
2026-05-07 04:39 9.74658 -83.51983 22755 ft 387 kts 289°
2026-05-07 04:39 9.75053 -83.55551 22204 ft 386 kts 266°
2026-05-07 04:40 9.74837 -83.58255 21806 ft 385 kts 264°
2026-05-07 04:40 9.74670 -83.60078 21555 ft 384 kts 265°
2026-05-07 04:40 9.74438 -83.62766 21178 ft 382 kts 265°
2026-05-07 04:40 9.74232 -83.65448 20791 ft 380 kts 266°
2026-05-07 04:41 9.74041 -83.68120 20431 ft 378 kts 266°
2026-05-07 04:41 9.73854 -83.70770 20070 ft 377 kts 265°
2026-05-07 04:41 9.73669 -83.73377 19704 ft 375 kts 266°
2026-05-07 04:41 9.73481 -83.76012 19331 ft 374 kts 265°
2026-05-07 04:42 9.73290 -83.78674 18941 ft 373 kts 265°
2026-05-07 04:42 9.73105 -83.81260 18579 ft 372 kts 265°
2026-05-07 04:42 9.72917 -83.83871 18171 ft 372 kts 265°
2026-05-07 04:42 9.72725 -83.86476 17787 ft 369 kts 265°
2026-05-07 04:43 9.72526 -83.89061 17416 ft 367 kts 265°
2026-05-07 04:43 9.72326 -83.91631 17054 ft 364 kts 265°
2026-05-07 04:43 9.72167 -83.93678 16767 ft 363 kts 265°
2026-05-07 04:43 9.71971 -83.96222 16395 ft 360 kts 265°
2026-05-07 04:44 9.71776 -83.98748 16035 ft 358 kts 265°
2026-05-07 04:44 9.71608 -84.00919 15715 ft 357 kts 265°